This demonstration page uses our WeatherBlox Daily Observations layout. Learn more.

Left ArrowRight Arrow

44.31136, -96.79839

Hourly Observations for September 6, 2021

Temp ( °F °C ) Dew Point ( °F °C ) Humidity (%) Winds ( mph kmh ) Pressure ( in mb ) Visibility ( mi km ) Precip ( " mm )
12:56 am 00:56 Clear 53 11.7 50 10 89 89 Calm 29.99 1016 10 16 0.00 0.00
1:56 am 01:56 Clear 52 11.1 49 9.4 89 89 SSW 5 7 29.99 1016 10 16 0.00 0.00
2:56 am 02:56 Clear 55 12.8 50 10 83 83 ESE 5 7 29.98 1015 10 16 0.00 0.00
3:56 am 03:56 Clear 54 12.2 49 9.4 83 83 Calm 29.98 1015 10 16 0.00 0.00
4:56 am 04:56 Clear 52 11.1 48 8.9 86 86 ESE 6 9 29.98 1015 10 16 0.00 0.00
5:56 am 05:56 Clear 51 10.6 48 8.9 89 89 SE 6 9 29.98 1015 10 16 0.00 0.00
6:56 am 06:56 Clear 51 10.6 48 8.9 89 89 SE 8 13 29.98 1015 10 16 0.00 0.00
7:56 am 07:56 Sunny 55 12.8 50 10 83 83 S 9 15 29.98 1015 10 16 0.00 0.00
8:56 am 08:56 Sunny 61 16.1 52 11.1 72 72 SSE 10 17 29.96 1015 10 16 0.00 0.00
9:56 am 09:56 Sunny 67 19.4 53 11.7 61 61 SSE 15 24 29.94 1014 10 16 0.00 0.00
10:56 am 10:56 Sunny 72 22.2 54 12.2 53 53 SSE 20 31 29.91 1013 10 16 0.00 0.00
11:56 am 11:56 Sunny 75 23.9 56 13.3 52 52 SSE 16 26 29.89 1012 10 16 0.00 0.00
12:56 pm 12:56 Sunny 78 25.6 60 15.6 54 54 S 17 28 29.87 1011 10 16 0.00 0.00
1:56 pm 13:56 Sunny 81 27.2 63 17.2 54 54 S 14 22 29.84 1010 10 16 0.00 0.00
2:56 pm 14:56 Sunny 84 28.9 65 18.3 53 53 SSW 15 24 29.80 1009 10 16 0.00 0.00
3:56 pm 15:56 Sunny 87 30.6 65 18.3 48 48 SSW 15 24 29.77 1008 10 16 0.00 0.00
4:56 pm 16:56 Sunny 87 30.6 67 19.4 51 51 S 12 19 29.75 1008 10 16 0.00 0.00
5:56 pm 17:56 Sunny 87 30.6 63 17.2 45 45 SSW 7 11 29.75 1007 10 16 0.00 0.00
6:56 pm 18:56 Sunny 84 28.9 63 17.2 49 49 SSW 7 11 29.75 1007 10 16 0.00 0.00
7:56 pm 19:56 Clear 79 26.1 61 16.1 54 54 S 6 9 29.75 1007 10 16 0.00 0.00
8:56 pm 20:56 Clear 73 22.8 62 16.7 69 69 S 9 15 29.74 1007 10 16 0.00 0.00
9:56 pm 21:56 Clear 73 22.8 65 18.3 76 76 SSW 7 11 29.73 1007 10 16 0.00 0.00
10:56 pm 22:56 Clear 71 21.7 66 18.9 84 84 SSW 5 7 29.73 1007 10 16 0.00 0.00
11:56 pm 23:56 Clear 70 21.1 66 18.9 87 87 S 5 7 29.73 1007 10 16 0.00 0.00

Powered by AerisWeather